Tracking 19563 objects as of 20-Mar-2019
HD Live streaming from Space Station
objects crossing your sky now

JCSAT 2

Track JCSAT 2 now!
JCSAT 2 is classified as:


NORAD ID: 20402
Int'l Code: 1990-001B
Perigee: 36,013.9 km
Apogee: 36,558.7 km
Inclination: 13.8 °
Period: 1,461.3 minutes
Semi major axis: 42657 km
RCS: 1 m2 (large)
Launch date: January 1, 1990
Source: Japan (JPN)
Launch site: AIR FORCE EASTERN TEST RANGE (AFETR)
aabbcc
Your satellite tracking list
Your tracking list is empty




NASA's NSSDC Master Catalog

Two Line Element Set (TLE):
1 20402U 90001B   19078.60744010 -.00000226 +00000-0 +00000-0 0  9996
2 20402 013.7943 033.0993 0063855 261.2401 276.7822 00.98540076089254
Source of the keplerian elements: AFSPC